Location: ????? ???????
(25.7275°N, 32.5929°E)
Time: 11:32:21
(UTC+00:00)

Cosmos 2333 - Pass Details

Date: 02 March 2021
Orbit: 829 x 866 km, 70.9° (Epoch: 15 April)

Event Time Altitude Azimuth Distance (km) Brightness Sun altitude
Rises 16:55:24 0° 190° (S) 3,358 7.5 -15.1°
Reaches altitude 10° 16:57:50 10° 188° (S) 2,430 6.7 -15.6°
Maximum altitude 17:03:20 67° 106° (ESE) 905 4.1 -16.9°
Drops below altitude 10° 17:08:56 10° 25° (NNE) 2,461 6.4 -18.1°
Sets 17:11:24 0° 23° (NNE) 3,404 7.1 -18.7°
